Location: Avully
(45.9633°N, 6.0228°E)
Time: 06:06:43
(UTC+00:00)

Cosmos 2360 Rocket - Pass Details

Date: 10 August 2024
Orbit: 834 x 843 km, 71.0° (Epoch: 16 September)

Event Time Altitude Azimuth Distance (km) Brightness Sun altitude
Exits shadow 02:52:25 - 281° (WNW) 2,891 4.6 -15.0°
Reaches altitude 10° 02:54:35 10° 299° (WNW) 2,467 4.4 -14.7°
Maximum altitude 02:56:57 13° 324° (NW) 2,289 4.5 -14.4°
Drops below altitude 10° 02:59:19 10° 349° (N) 2,469 5.0 -14.1°
Sets 03:03:27 0° 18° (NNE) 3,406 6.4 -13.6°
